Weather History for KMLF - January, 2013

Change the Weather History Date:

Monday, January 7, 2013

  Actual Average Record
Temperature  
Mean Temperature 7 °F -  
Max Temperature 21 °F 38 °F 57 °F (2006)
Min Temperature -7 °F 18 °F -7 °F (2013)
Degree Days  
Heating Degree Days 58    
Moisture  
Dew Point 2 °F    
Average Humidity 70    
Maximum Humidity 87    
Minimum Humidity 43    
Precipitation  
Precipitation 0.00 in - - ()
Sea Level Pressure  
Sea Level Pressure 30.34 in    
Wind  
Wind Speed 6 mph (North)    
Max Wind Speed 13 mph    
Max Gust Speed -    
Visibility 8 miles    
Events      
Averages and records for this station are not official NWS values.
T = Trace of Precipitation, MM = Missing Value Source: NWS Daily Summary

Daily Weather History Graph

Daily Weather History Graph

Search for Another Location

Airport or City:

Trip Planner

Search our weather history database for the weather conditions in past years. The results will help you decide how hot, cold, wet, or windy it might be!

Date:

Astronomy

Jan. 07, 2013 Rise Set
Actual Time 7:49 AM MST 5:27 PM MST
Civil Twilight 7:20 AM MST 5:57 PM MST
Nautical Twilight 6:47 AM MST 6:30 PM MST
Astronomical Twilight 6:15 AM MST 7:02 PM MST
Moon 3:18 AM MST (1/7) 1:41 PM MST (1/7)
Length of Visible Light 10h 36m
Length of Day
9h 38m
Waning Crescent, 22% of the Moon is Illuminated
Jan 7
Waning Crescent
Jan 11
New
Jan 18
First Quarter
Jan 26
Full
Feb 3
Last Quarter

Hourly Weather History & Observations

Time (MST) Temp. Windchill Dew Point Humidity Pressure Visibility Wind Dir Wind Speed Gust Speed Precip Events Conditions
12:52 AM 5.0 °F -6.9 °F -0.0 °F 80% 30.24 in 8.0 mi NNW 6.9 mph - N/A   Clear
1:52 AM 5.0 °F -11.6 °F -0.0 °F 80% 30.25 in 8.0 mi North 12.7 mph - N/A   Clear
2:52 AM -0.0 °F -15.3 °F -4.0 °F 83% 30.27 in 6.0 mi North 9.2 mph - N/A   Clear
3:52 AM -0.9 °F -15.3 °F -6.0 °F 79% 30.30 in 6.0 mi NE 8.1 mph - N/A   Haze
4:52 AM -0.9 °F - -4.0 °F 87% 30.29 in 6.0 mi Calm Calm - N/A   Clear
5:52 AM -5.1 °F -13.6 °F -9.0 °F 83% 30.36 in 5.0 mi NNE 3.5 mph - N/A   Clear
6:52 AM -0.9 °F -12.7 °F -7.1 °F 75% 30.34 in 8.0 mi West 5.8 mph - N/A   Clear
7:52 AM -4.0 °F - -9.9 °F 76% 30.40 in 6.0 mi Calm Calm - N/A   Haze
8:52 AM 8.1 °F 1.4 °F 3.0 °F 80% 30.36 in 10.0 mi NW 3.5 mph - N/A   Clear
9:52 AM 5.0 °F - 1.0 °F 84% 30.41 in 5.0 mi Calm Calm - N/A   Clear
10:52 AM 12.9 °F 6.9 °F 3.0 °F 65% 30.40 in 10.0 mi NNE 3.5 mph - N/A   Clear
11:52 AM 17.1 °F 5.8 °F 5.0 °F 59% 30.39 in 10.0 mi North 9.2 mph - 0.00 in   Clear
12:52 PM 19.9 °F - 6.1 °F 55% 30.31 in 10.0 mi Calm Calm - 0.00 in   Clear
1:52 PM 19.9 °F 9.3 °F 7.0 °F 57% 30.31 in 10.0 mi East 9.2 mph - N/A   Clear
2:52 PM 21.0 °F 12.4 °F 7.0 °F 55% 30.33 in 10.0 mi NNE 6.9 mph - N/A   Clear
3:52 PM 19.9 °F 10.1 °F 8.1 °F 60% 30.33 in 10.0 mi North 8.1 mph - N/A   Clear
4:52 PM 19.0 °F 12.3 °F 9.0 °F 65% 30.35 in 10.0 mi NE 4.6 mph - N/A   Clear
5:52 PM 16.0 °F 6.3 °F 9.0 °F 74% 30.38 in 10.0 mi North 6.9 mph - N/A   Clear
6:52 PM 12.0 °F 0.5 °F 6.1 °F 77% 30.39 in 9.0 mi NNW 8.1 mph - N/A   Clear
7:52 PM 14.0 °F 1.2 °F 7.0 °F 74% 30.40 in 10.0 mi NNW 10.4 mph - N/A   Clear
8:52 PM 10.0 °F 1.8 °F 5.0 °F 80% 30.35 in 8.0 mi NW 4.6 mph - N/A   Clear
9:52 PM 8.1 °F -3.2 °F 3.0 °F 80% 30.39 in 8.0 mi ENE 6.9 mph - N/A   Partly Cloudy
10:52 PM 10.9 °F 1.4 °F 5.0 °F 77% 30.35 in 8.0 mi NNW 5.8 mph - N/A   Overcast
11:52 PM 10.0 °F -2.9 °F 3.9 °F 76% 30.34 in 8.0 mi SSE 9.2 mph - N/A   Overcast